Retour au catalogue

DELTA 1 DEB

ActifSSO
NORAD 21457·DEBRIS·🇺🇸 United States

Lancé Jun 12, 1975 depuis Vandenberg Space Force Base

Loading…

Prochains Passages (prochaines 24 heures)

TLE

FraisSource: Space-Track

Époque: Sep 14, 2026, 05:04 UTC

1 21457U 75052ER  26257.21139238  .00000798  00000-0  11281-2 0  9998
2 21457  99.9534 169.7747 0286763 302.6794 216.4707 13.44626841714293

Suivez DELTA 1 DEB en temps réel avec AllMySat

Download on the App Store